YARILO 1 (46490 NORAD) Tracking and Keplerian Element Data

This shows tracking and keplerian element data for the satellite.

Feedback or suggestion? Click here.




ElementValue
Catalog46490
NameYARILO 1
Epoch Orbit485
Epoch Day304.82485963
Epoch Year2020
RAAN238.0252
Inclination97.6698
Eccentricity0.0019806
Argument of Perigee130.6982
Mean Anonmoly229.5968
Mean Motion15.03530762
Decay Rate1.486E-05
L11 46490U 20068E 20304.82485963 .00001486 00000-0 11297-3 0 9995
L22 46490 97.6698 238.0252 0019806 130.6982 229.5968 15.03530762 4855

Live tracking and technical data element details for YARILO 1 (NORAD 46490). YARILO 1 can be tracked NOW for your location showing map with azimuth and elevation plus other details from your city location.

Track the satellite on the map from your city or location and see movement details for azimuth, elevation, latitude, longitude, range, height, and movement on the map or in text.







IsCatalogInMostPopularTable: catalog: 46490, numindb: 7
Update: records affected: 1



GetName: 46490 YARILO 1

Hit Count: updated at: Sat, 31 Oct 2020 10:55:39 GMT